Regional Weather Roundup
Issued by NWS Albany, NY

Home | Current Version | Previous Version | Text Only | Print | Product List | Glossary On
Versions: 1 2 3 4 5 6 7 8 9 10 11 12 13 14 15 16 17 18 19 20 21 22 23 24 25 26 27 28 29 30 31 32 33 34 35 36 37 38 39 40 41 42 43 44 45 46 47 48 49 50
129
ASUS41 KALY 221510
RWRALY

NEW YORK STATE HOURLY WEATHER ROUNDUP
NATIONAL WEATHER SERVICE ALBANY NY
1000 AM EST SUN JAN 22 2017

NOTE: "FAIR" INDICATES FEW OR NO CLOUDS BELOW 12,000 FEET WITH NO
SIGNIFICANT WEATHER AND/OR NO OBSTRUCTIONS TO VISIBILITY.

NYZ032-033-038>043-046>054-057>066-NYZ062>081-082-084-221600-
EAST


CITY           SKY/WX    TMP DP  RH WIND       PRES   REMARKS
ALBANY         CLOUDY    41  38  89 N6        29.76S FOG
GLENS FALLS    CLOUDY    40  37  89 NE5       29.77F
POUGHKEEPSIE   FOG       42  41  96 N5        29.75R VSB 1
NEWBURGH       MOSUNNY   45  45 100 CALM      29.75R FOG
MONTGOMERY     CLOUDY    43  42  97 CALM      29.74R FOG
WHITE PLAINS   FOG       43  42  97 NE5       29.73R VSB 1/4
ISLIP          CLOUDY    45  44  97 NE5       29.74R FOG
NEW YORK CITY  FOG       45  44  97 NE8       29.75R VSB<1/4
CENTRAL PARK   CLOUDY    44  44 100 NE5       29.77R FOG
$$

NYZ005>009-017-018-044>046-055-056-221600-
CENTRAL


CITY           SKY/WX    TMP DP  RH WIND       PRES   REMARKS
FULTON         CLOUDY    41  40  96 S3        29.75R FOG
SYRACUSE       CLOUDY    40  40 100 CALM      29.73R FOG
ROME           CLOUDY    43  42  97 SE7       29.75R
ELMIRA         FOG       40  38  93 CALM      29.73R VSB 1/4
BINGHAMTON     FOG       39  39 100 W5        29.71R VSB<1/4
MONTICELLO     SUNNY     46  45  93 E5        29.74R
$$

NYZ026>034-041>043-087-221600-
NORTH


CITY           SKY/WX    TMP DP  RH WIND       PRES   REMARKS
WATERTOWN      CLOUDY    39  39 100 NE13      29.75R FOG     WCI  31
FORT DRUM      NOT AVBL
OGDENSBURG     CLOUDY    35  34  97 NE10G18   29.80R WCI  27
MASSENA        CLOUDY    34  31  88 NE14      29.84F WCI  25
SARANAC LAKE   CLOUDY    34  32  92 NE12      29.73S WCI  25
PLATTSBURGH    CLOUDY    34  31  88 N9        29.84F WCI  27
$$

NYZ001>004-010>016-019>021-085-221600-
WEST


CITY           SKY/WX    TMP DP  RH WIND       PRES   REMARKS
NIAGARA FALLS  FOG       40  37  89 NE7       29.71R VSB<1/4
BUFFALO        FOG       41  40  96 NE7       29.70R VSB 1
DUNKIRK        CLOUDY    40  39  97 CALM      29.69R
JAMESTOWN      CLOUDY    46  45  93 S3        29.68R
WELLSVILLE     CLOUDY    49  46  90 CALM      29.71R
ROCHESTER      FOG       42  41  96 E6        29.74R VSB 1/4
PENN YAN       CLOUDY    45  41  86 SW5       29.71R
$$

             KEY
       WCI = WIND CHILL INDEX
       VSB = VISIBILITY
       HX  = HEAT INDEX
$$




USA.gov is the U.S. government's official web portal to all federal, state and local government web resources and services.